Tracking 19795 objects as of 20-Jul-2019
HD Live streaming from Space Station
objects crossing your sky now

COSMOS 1275 DEB

Track COSMOS 1275 DEB now!
10-day predictions


NORAD ID: 12740
Int'l Code: 1981-053CH
Perigee: 817.7 km
Apogee: 844.0 km
Inclination: 82.8 °
Period: 101.4 minutes
Semi major axis: 7201 km
RCS: 0.0069 m2 (small)
Launch date: June 4, 1981
Source: Commonwealth of Independent States (former USSR) (CIS)
Launch site: PLESETSK MISSILE AND SPACE COMPLEX (PKMTR)

Note: This is SATELLITE DEBRIS
aabbcc
Your satellite tracking list
Your tracking list is empty




NASA's NSSDC Master Catalog

Two Line Element Set (TLE):
1 12740U 81053CH  19200.74140184 +.00000494 +00000-0 +22216-3 0  9995
2 12740 082.8437 108.8920 0018274 219.3725 169.8962 14.20482469937344
Source of the keplerian elements: AFSPC